Location: Wallasey
(53.4265°N, 3.0662°W)
Time: 02:38:32
(UTC+01:00)

TIGRISAT - Visible Passes

Search period start: 21 August 2019 00:00
Search period end: 31 August 2019 00:00
Orbit: 606 x 688 km, 97.7° (Epoch: 20 August)

Date Brightness Start Highest point End Pass type
(mag) Time Alt. Az. Time Alt. Az. Time Alt. Az.
21 Aug ? 00:15:37 10° NNW 00:18:07 14° NW 00:20:36 10° W visible
21 Aug ? 21:26:57 10° NNE 21:31:01 29° E 21:34:59 10° SSE visible
21 Aug ? 23:03:26 10° N 23:07:52 45° WNW 23:12:12 10° SW visible
22 Aug ? 21:52:26 10° NNE 21:56:56 47° E 22:01:06 11° S visible
22 Aug ? 23:29:26 10° N 23:33:25 29° WNW 23:37:20 10° WSW visible
23 Aug ? 22:18:05 10° NNE 22:22:45 79° ESE 22:26:55 12° S visible
23 Aug ? 23:55:38 10° NNW 23:58:53 19° NW 00:02:06 10° W visible
24 Aug ? 21:07:55 10° NE 21:11:21 20° E 21:14:42 10° SE visible
24 Aug ? 22:43:52 10° N 22:48:28 64° WNW 22:52:45 11° SSW visible
25 Aug ? 00:22:13 10° NNW 00:24:16 13° NW 00:26:18 10° WNW visible
25 Aug ? 21:33:09 10° NNE 21:37:19 32° E 21:40:51 13° SSE visible
25 Aug ? 23:09:47 10° N 23:14:06 39° WNW 23:18:17 10° SW visible
26 Aug ? 21:58:41 10° NNE 22:03:13 53° E 22:06:41 16° S visible
26 Aug ? 23:35:50 10° N 23:39:37 26° WNW 23:43:19 10° WSW visible
27 Aug ? 20:49:12 10° NE 20:51:35 14° E 20:53:56 10° ESE visible
27 Aug ? 22:24:22 10° NNE 22:29:00 89° E 22:32:30 17° SSW visible
28 Aug ? 00:02:06 10° NNW 00:05:03 17° NW 00:07:57 10° W visible
28 Aug ? 21:14:02 10° NE 21:17:39 23° E 21:20:36 13° SE visible
28 Aug ? 22:50:11 10° N 22:54:41 56° WNW 22:58:19 15° SW visible
29 Aug ? 00:28:58 10° NNW 00:30:24 11° NW 00:31:50 10° WNW visible
29 Aug ? 21:39:22 10° NNE 21:43:37 36° E 21:46:25 18° SSE visible
29 Aug ? 23:16:08 10° N 23:20:17 35° WNW 23:24:08 11° SW visible
30 Aug ? 22:04:56 10° NNE 22:09:28 61° E 22:12:14 22° S visible
30 Aug ? 23:42:14 10° N 23:45:47 23° WNW 23:49:16 10° WSW visible
